Terminal Aerodrome Forecast
Issued by NWS Houston/Galveston TX

Home | Current Version | Previous Version | Text Only | Print | Product List | Glossary On
Versions: 1 2 3 4 5 6 7 8 9 10 11 12 13 14 15 16 17 18 19 20 21 22 23 24 25 26 27 28 29 30 31 32 33 34 35 36 37 38 39 40 41 42 43 44 45 46 47 48 49 50
000
FTUS44 KHGX 171149
TAFHOU
TAF
KHOU 171149Z 1712/1812 00000KT P6SM FEW020 BKN150 OVC250
     FM171500 VRB04KT P6SM VCSH SCT025 OVC250
     FM171700 15008KT P6SM VCTS SCT035CB SCT100 BKN250
      TEMPO 1718/1721 VRB10G18KT TSRA
     FM180100 14005KT P6SM VCSH FEW040 BKN100 BKN250 PROB30
      1808/1812 SHRA BKN025 OVC100=

USA.gov is the U.S. government's official web portal to all federal, state and local government web resources and services.